Theta_e
352 353 353 353 353 353 353 352 353 351 347 344 342 340 340 340 339 340 340 341 343 343 344 346 347 347 348 347 348 349 349 348 348 347 347 347 347 346 347 347 346 345 344 344 344 345 343 340 339 335 332 331 331 332 332 328 323 321 323 329 332 336 338 338 337 335 336 339 339 338 337 335 335 336 338 339 339 340 341 342 343 344 343 343 342
351 353 353 353 353 353 354 354 354 354 349 343 341 341 340 342 342 342 343 343 344 344 345 346 346 346 348 348 347 347 347 347 348 348 348 349 347 346 346 346 345 345 344 344 343 344 342 339 337 333 331 333 331 329 326 320 319 325 331 336 336 334 336 336 335 335 339 341 339 339 340 336 335 337 339 339 339 339 339 340 340 340 340 340 339
351 352 353 352 352 352 354 355 354 354 352 345 341 341 341 343 344 343 344 345 346 346 346 347 346 345 346 348 346 346 347 347 348 349 349 349 349 347 348 347 345 344 344 345 344 342 340 338 335 332 331 331 328 327 326 324 325 330 334 335 335 335 336 335 332 333 338 339 338 338 339 339 338 338 338 338 338 338 338 337 337 337 337 335 336
351 351 350 350 351 352 352 354 353 353 354 349 342 342 343 344 345 344 345 346 347 347 347 347 347 345 345 345 344 345 347 346 346 346 346 347 349 348 348 346 345 345 345 345 343 341 339 337 334 331 332 329 324 323 327 332 333 332 333 333 333 337 339 337 335 332 333 336 339 339 338 339 339 338 338 338 338 337 337 336 336 335 334 332 333
352 350 349 349 349 350 351 353 353 353 354 352 346 344 345 345 345 345 345 345 346 346 345 345 346 347 346 346 346 346 346 346 345 345 344 345 347 347 347 345 344 345 345 343 340 339 338 335 332 331 332 327 321 324 328 331 332 331 332 332 331 335 338 338 337 334 331 332 335 338 338 338 338 337 337 337 337 336 336 336 333 332 330 327 327
353 350 348 348 348 349 351 353 353 353 354 353 350 346 345 346 347 346 346 346 346 346 345 344 345 346 347 348 348 346 345 345 344 345 347 347 347 349 348 345 344 345 343 341 339 338 335 332 330 330 330 325 320 325 326 325 329 331 333 333 332 333 335 337 338 335 332 330 330 331 334 337 338 337 338 337 337 336 336 334 332 329 325 321 320
353 351 347 347 348 349 352 353 352 352 352 351 350 347 345 346 347 347 347 346 346 346 346 346 345 345 346 346 345 343 344 344 343 343 345 346 346 348 347 344 343 342 340 339 338 337 336 333 331 329 328 325 320 322 325 328 331 332 332 334 333 333 335 337 338 336 335 333 330 330 332 334 334 335 337 337 337 336 335 333 331 329 326 323 320
353 351 348 347 348 349 351 352 351 350 352 351 348 347 345 346 346 347 347 347 346 345 345 346 344 344 345 345 344 343 343 343 343 342 341 343 343 343 343 342 341 340 340 340 340 341 340 337 333 326 324 325 321 324 329 328 329 331 331 333 333 333 335 336 336 336 337 336 334 334 334 333 332 332 334 335 336 336 335 334 332 330 328 327 324
352 351 350 348 349 350 351 352 349 348 352 351 348 346 345 346 346 347 347 347 346 345 344 345 344 342 343 344 345 344 344 343 345 345 344 343 343 343 343 342 343 344 345 344 343 342 339 334 329 321 319 322 322 327 331 326 326 332 332 332 334 334 334 333 334 336 336 335 335 335 335 334 333 333 333 334 335 335 334 334 332 331 329 327 326
351 351 350 349 349 350 350 352 350 347 350 350 347 345 346 346 346 346 347 347 347 345 344 344 344 342 343 346 346 345 345 344 346 348 347 346 347 348 347 346 346 346 346 345 341 338 333 328 324 318 318 322 321 327 331 327 327 329 330 333 334 334 333 332 333 334 335 335 334 334 335 335 335 335 334 334 334 334 334 333 332 332 330 328 327
352 350 350 350 350 351 351 352 350 346 346 347 346 346 346 346 346 346 346 347 347 346 345 344 344 344 344 345 345 346 346 346 347 350 351 351 351 351 350 348 348 345 345 343 336 332 329 324 322 320 319 322 322 323 326 328 331 331 331 333 333 332 333 332 332 332 333 334 334 333 334 335 334 334 334 334 333 333 333 333 332 331 330 330 329
353 352 351 351 351 352 352 353 352 346 343 344 345 345 346 346 346 346 346 346 347 347 346 345 344 344 345 345 346 346 347 348 349 350 351 352 351 352 350 348 349 345 340 336 329 327 326 320 319 320 318 321 324 327 328 331 334 335 333 333 332 332 332 332 333 332 331 333 334 333 333 333 333 332 332 333 333 332 332 332 332 332 331 330 330
352 352 351 351 352 353 352 354 352 347 344 343 344 344 345 345 346 346 345 346 346 347 347 346 346 345 345 346 346 347 347 349 349 348 349 348 348 351 350 348 345 338 331 327 326 327 324 318 317 317 316 319 325 331 333 333 334 335 334 331 331 332 331 332 333 330 329 331 332 331 331 331 331 331 330 331 333 332 331 332 331 331 331 331 330
351 353 352 352 352 352 352 351 348 345 343 344 344 344 344 345 345 345 345 345 345 346 346 346 346 346 346 346 346 347 348 348 348 348 348 347 345 347 349 347 340 332 326 325 327 330 327 321 317 316 316 317 324 331 333 332 331 331 331 329 329 329 330 331 331 329 327 327 328 328 328 329 330 331 332 332 333 332 332 332 332 331 331 331 331
351 352 352 352 351 350 349 346 344 343 343 344 344 344 344 344 345 345 345 345 345 346 346 346 346 346 347 347 346 347 347 347 347 347 347 346 344 344 346 344 338 332 329 327 329 329 325 322 318 317 317 317 324 331 330 328 327 326 327 327 327 328 328 330 329 327 327 326 328 329 329 330 330 331 332 332 332 332 331 331 331 332 331 330 330
351 352 352 351 348 345 345 344 342 343 343 343 344 344 344 344 345 344 345 345 345 346 346 346 346 346 347 347 347 347 346 347 347 346 345 344 342 344 344 340 336 333 331 328 328 326 321 319 317 317 318 317 322 327 326 326 325 324 325 325 326 328 327 327 327 326 326 327 328 329 329 331 331 330 330 331 331 331 330 329 330 331 332 331 330
351 352 352 350 346 343 343 342 342 343 343 343 343 344 344 344 345 345 345 345 345 346 346 346 346 346 346 347 347 347 346 346 345 344 343 342 342 343 342 339 336 333 330 327 326 323 318 317 316 317 318 317 318 321 322 324 324 323 323 323 326 330 327 325 326 326 326 328 328 329 329 330 331 331 330 330 331 331 330 329 329 331 331 331 331
351 352 352 350 346 343 342 342 342 342 342 343 343 343 344 344 345 345 345 345 345 346 346 346 347 346 346 347 347 348 347 346 345 343 342 341 342 341 341 338 331 326 325 324 322 320 317 316 316 317 317 316 317 319 321 322 322 323 324 322 323 325 325 324 325 325 327 328 327 328 329 330 330 331 331 331 331 330 329 329 330 330 331 331 331
351 352 352 353 349 345 342 342 343 343 342 342 342 343 344 343 345 345 344 344 344 345 346 346 347 347 347 347 347 347 348 347 345 343 341 341 342 341 339 334 326 320 319 319 318 318 316 315 316 316 317 317 317 318 320 321 321 322 324 327 326 323 322 326 328 328 328 329 328 327 328 329 330 330 332 332 331 329 329 329 330 330 331 331 331
351 351 352 351 347 345 343 342 343 343 342 342 342 343 343 343 344 344 345 345 345 345 346 346 347 347 347 347 347 348 348 348 346 342 341 342 343 341 336 329 322 317 316 315 316 316 316 316 316 317 318 318 318 320 321 321 320 321 324 331 334 329 325 328 330 330 330 329 327 327 327 328 329 331 332 332 331 331 331 331 329 328 328 328 327
350 351 351 349 347 347 348 347 345 344 343 342 342 343 343 343 344 344 345 345 345 345 346 345 346 347 347 347 347 348 348 348 346 342 341 342 343 340 332 324 319 316 315 315 315 316 316 316 317 317 318 320 321 321 322 322 321 321 324 329 331 329 326 328 329 329 330 328 326 325 326 327 328 329 331 331 332 331 331 330 329 327 327 326 325
350 350 351 352 351 350 352 352 350 348 347 344 344 345 344 343 344 344 344 345 345 345 345 346 346 347 347 347 347 348 348 349 347 343 341 342 343 340 330 321 317 316 315 315 315 316 316 317 317 317 318 320 320 320 322 323 322 323 327 329 329 328 328 329 329 329 329 329 328 326 325 326 327 327 328 330 330 330 330 330 329 328 328 327 327
350 349 349 351 353 352 352 354 352 351 350 347 347 349 347 344 344 344 344 345 345 346 345 346 346 346 346 347 347 348 348 349 346 342 342 342 343 341 330 319 317 317 315 316 316 316 316 317 317 317 318 320 320 321 323 325 325 325 327 329 331 331 330 331 331 330 329 330 330 330 330 329 329 327 327 328 329 329 328 328 327 326 325 325 325
350 349 347 349 352 353 350 350 351 351 352 350 347 348 348 346 346 346 345 344 345 350 349 346 345 345 345 345 347 348 348 348 343 340 342 343 344 343 332 320 318 317 316 316 316 316 317 317 317 317 319 320 321 322 324 325 326 325 326 328 330 330 330 330 330 330 330 331 332 332 332 332 330 328 326 326 327 328 327 327 326 325 324 324 323
349 347 348 349 352 353 348 347 349 348 350 349 347 348 347 346 347 348 347 346 349 354 354 347 343 344 344 344 347 347 348 349 343 338 341 343 345 345 333 322 318 317 318 318 317 316 317 317 317 318 318 321 321 323 325 325 325 325 326 328 330 330 329 329 329 329 329 330 331 332 332 332 331 328 326 327 328 327 327 327 326 326 326 326 325
346 346 349 351 353 353 348 346 347 347 347 347 346 347 347 345 345 346 350 353 355 358 356 348 343 344 343 343 345 346 347 348 343 337 340 344 345 343 331 321 319 318 320 323 319 316 317 317 317 318 318 320 322 323 324 325 325 326 327 329 330 330 329 329 329 329 329 330 330 329 330 331 330 327 327 328 328 327 326 326 327 327 327 327 327
342 345 350 352 352 351 347 345 345 345 345 344 343 345 345 344 344 347 354 358 359 359 357 351 346 345 346 345 345 345 345 342 337 335 339 343 345 343 331 321 321 319 319 322 320 317 317 318 317 318 318 320 322 323 324 324 325 327 328 329 329 329 329 329 329 328 330 331 330 328 327 328 327 326 327 328 328 327 326 326 326 327 327 327 327
343 342 346 351 351 348 346 345 344 343 343 343 343 344 344 345 346 350 356 359 360 360 357 354 351 350 353 353 348 345 343 339 335 334 337 340 343 345 337 325 321 320 319 320 320 318 318 318 317 318 318 319 322 323 324 325 326 327 328 328 329 329 329 329 329 328 328 330 330 330 330 330 329 327 325 327 328 329 328 328 327 327 327 328 328
344 338 340 347 349 347 346 346 345 343 342 342 343 344 345 346 348 351 355 359 361 359 357 356 355 353 355 355 352 346 345 343 339 335 335 337 340 343 343 333 323 320 320 320 319 318 320 320 318 318 318 319 321 323 324 325 326 327 328 329 329 329 328 328 330 330 329 328 328 329 331 331 329 325 323 323 324 325 327 327 327 327 327 328 329
345 339 337 340 344 345 345 346 344 341 341 342 342 343 343 345 346 348 351 357 359 358 356 356 355 353 353 353 351 349 349 349 346 340 336 337 339 343 345 339 328 321 320 320 318 319 321 321 319 318 318 318 320 322 323 324 326 328 329 330 330 330 327 328 330 330 329 329 329 329 330 329 326 322 321 322 321 322 325 325 326 326 327 327 327
346 342 338 337 342 345 345 344 341 338 340 341 340 342 342 344 346 346 348 354 355 354 356 356 355 353 353 352 351 351 351 351 350 347 341 338 339 344 346 341 331 323 321 319 318 320 321 322 321 319 318 319 320 322 323 323 325 328 329 329 330 331 330 329 329 329 329 329 330 330 331 331 329 326 324 323 323 323 325 327 327 327 326 325 325
346 343 340 338 340 342 341 340 339 338 340 340 340 342 342 342 345 346 349 353 354 353 353 353 353 353 353 351 350 351 350 351 352 351 348 342 338 341 346 343 334 325 322 319 319 321 323 323 322 320 319 319 320 321 322 322 324 327 329 328 328 330 332 332 331 332 331 331 331 331 331 332 332 331 329 327 327 326 326 326 327 327 326 325 324
345 342 340 339 341 343 343 340 339 339 339 340 341 341 341 342 343 346 349 352 353 352 350 350 354 354 352 348 349 351 349 350 351 352 351 348 341 340 344 345 337 327 323 320 319 323 325 324 323 321 320 320 320 321 321 321 323 326 328 327 326 327 331 331 331 332 332 331 331 332 331 331 332 332 331 328 328 327 326 327 327 327 326 325 324
349 347 345 345 349 350 346 340 338 339 340 340 341 340 341 342 342 344 347 349 350 349 348 352 355 354 350 347 349 350 349 349 351 352 352 351 346 342 344 346 340 328 323 321 319 323 327 326 325 323 321 320 321 321 321 320 321 323 325 326 326 327 329 329 330 331 331 330 331 331 332 331 331 333 333 332 330 328 327 328 328 328 327 327 327
352 352 350 348 348 346 344 339 338 340 340 340 341 341 341 341 342 343 344 345 346 345 348 353 354 350 347 348 349 349 349 349 350 351 352 352 349 345 345 347 339 326 322 322 319 321 325 326 325 324 322 322 322 322 322 321 321 322 323 325 327 328 329 330 330 331 331 330 330 331 332 332 332 333 333 332 330 328 327 328 328 329 329 328 328
352 349 347 346 342 340 340 338 338 340 340 340 340 341 341 342 342 343 343 344 345 345 348 350 350 347 348 349 349 349 350 350 351 352 351 351 350 348 347 348 340 326 321 322 320 321 324 324 325 324 323 323 323 324 325 324 321 322 324 326 328 329 330 331 332 333 333 332 332 332 331 331 331 331 331 329 328 328 328 328 328 328 328 327 327
346 342 342 342 339 338 338 339 339 339 339 340 340 340 342 342 342 343 343 343 344 345 346 347 347 347 349 349 348 349 351 351 351 352 352 351 351 349 349 349 341 326 321 322 321 322 323 322 323 324 324 324 325 327 327 324 322 325 328 329 329 329 330 330 332 333 333 332 332 332 331 331 331 331 330 329 328 329 329 329 329 329 327 327 326
344 343 344 341 338 339 339 338 339 339 339 340 341 341 342 342 343 343 343 344 345 346 346 347 347 348 349 350 350 350 351 351 351 352 352 351 351 349 349 349 340 327 324 326 323 321 322 321 320 323 323 322 325 330 329 325 325 329 332 333 332 331 330 330 330 331 332 334 334 333 332 332 333 333 332 331 329 329 329 329 329 328 327 327 327
347 346 345 341 338 339 339 338 339 340 341 341 340 339 338 338 338 340 341 344 345 346 347 348 348 349 350 351 351 351 351 351 351 352 352 351 350 348 348 349 342 329 325 328 326 323 322 321 321 325 327 325 327 331 332 329 329 333 335 336 336 335 333 333 333 334 335 336 335 334 333 333 332 332 331 331 329 328 328 328 328 327 327 327 328
347 344 341 339 339 339 339 340 341 340 339 337 335 334 332 332 334 336 339 342 344 346 348 348 348 351 352 352 351 351 351 351 351 351 351 349 348 347 347 347 341 330 325 328 331 329 327 324 324 328 331 332 333 333 333 333 333 335 337 337 336 336 335 335 336 336 336 335 334 333 333 333 331 329 328 328 327 326 327 327 327 327 327 327 328
349 345 340 338 340 340 339 339 337 335 334 333 331 331 330 331 333 336 339 343 346 347 348 349 351 352 352 352 351 350 351 351 350 350 350 348 347 347 346 343 339 334 329 330 331 331 327 324 323 324 328 333 336 336 335 336 336 336 337 337 337 337 336 335 335 334 334 334 334 333 333 332 330 328 326 326 326 325 325 325 325 325 326 326 326
348 343 341 341 341 339 336 335 333 332 332 332 332 331 331 332 334 337 340 343 345 347 348 350 352 353 352 351 351 350 350 350 349 349 348 347 347 346 345 343 341 338 337 335 332 328 325 324 325 327 330 334 336 336 336 336 337 338 338 338 336 335 334 332 332 332 333 333 332 332 332 331 329 327 326 327 326 326 325 325 324 324 325 325 325
345 345 346 344 339 337 336 336 336 335 334 333 332 332 332 333 334 336 338 339 342 344 345 348 351 351 351 351 350 350 350 349 349 348 347 348 348 346 344 343 341 341 340 337 333 328 325 327 329 332 333 334 336 338 338 338 338 337 336 334 332 330 329 329 330 331 331 331 331 331 331 330 329 327 327 327 327 326 326 325 325 325 325 325 324
347 347 345 341 338 339 340 340 338 337 336 335 334 333 334 334 334 334 335 336 337 338 340 345 348 349 350 351 350 349 349 348 348 348 348 347 346 345 343 342 341 340 337 334 331 328 327 330 332 334 335 336 338 339 337 335 334 333 330 328 328 327 327 327 328 329 329 330 331 331 330 330 329 328 328 327 327 326 326 325 325 325 325 325 323
344 342 341 340 340 340 339 337 337 336 335 335 335 335 335 334 335 335 335 336 337 338 341 346 348 349 349 349 349 348 348 347 347 348 348 346 343 342 343 342 341 338 333 331 331 330 330 334 335 336 337 338 338 336 333 330 329 328 326 325 325 326 326 326 327 327 328 329 329 329 329 329 329 329 328 327 327 326 326 325 325 325 324 323 321
344 341 340 339 338 337 336 337 337 336 335 335 335 335 335 335 335 336 338 340 342 344 346 349 349 349 348 348 348 347 347 346 346 346 347 345 343 342 342 342 341 336 330 330 331 332 334 337 337 338 339 338 334 332 329 327 325 324 323 323 324 325 326 326 326 326 327 327 328 328 329 329 329 328 327 327 326 326 325 324 323 322 321 320 319
344 341 338 337 337 337 336 335 335 335 334 334 334 334 335 336 338 338 340 342 345 346 347 348 348 348 347 347 347 346 346 345 345 345 345 344 343 342 341 340 338 333 329 330 333 334 336 336 336 337 335 332 329 328 327 326 325 324 324 324 323 324 324 324 324 324 325 325 325 326 327 328 328 327 327 326 326 325 324 321 320 319 319 320 320
337 336 335 334 333 334 334 333 334 336 336 335 337 338 339 340 341 341 342 342 343 344 345 345 346 346 346 346 346 345 345 345 345 345 343 342 342 341 340 337 333 330 329 332 334 335 336 336 336 335 331 328 329 330 328 328 329 329 328 327 325 324 324 325 324 325 325 325 324 324 325 326 326 326 325 325 324 323 322 320 319 319 319 319 319
334 333 332 331 333 334 335 336 338 340 341 341 342 342 342 341 342 341 341 340 340 342 343 344 345 345 345 345 345 344 344 344 344 343 342 342 341 340 339 335 331 330 331 332 333 334 336 337 336 332 328 328 331 330 328 327 327 326 326 326 325 324 324 324 324 324 324 325 325 324 324 325 325 325 324 323 322 322 321 320 320 319 319 318 318
330 329 329 330 334 336 337 339 341 343 343 343 342 342 342 341 341 341 340 339 340 341 343 343 344 344 343 343 344 343 343 343 343 342 342 341 341 340 338 335 332 331 332 333 335 336 336 335 332 328 326 328 330 329 326 325 324 324 324 324 323 323 322 322 322 321 322 324 325 324 324 324 324 324 323 322 322 321 320 320 319 319 318 317 316
328 327 328 328 330 333 335 337 339 341 342 342 341 341 340 340 340 339 339 339 340 342 342 342 342 342 342 342 342 342 342 341 341 340 340 339 339 338 337 335 335 335 335 336 336 334 331 330 329 327 327 327 327 326 324 323 323 323 323 323 322 322 321 321 321 321 322 323 324 324 324 323 323 323 322 321 321 320 320 319 319 318 317 316 314
Wind_Speed
23 23 24 24 24 23 23 22 22 23 25 26 27 27 27 26 26 26 25 24 24 23 22 21 21 19 18 18 17 16 16 15 14 13 13 12 12 11 11 12 13 13 13 11 11 11 9 8 9 11 11 9 7 8 9 10 11 9 6 4 3 4 4 3 4 4 4 5 4 3 2 2 1 1 2 2 1 1 1 1 1 1 1 2 3
21 22 24 25 24 24 24 23 23 23 25 27 28 28 28 27 27 26 24 24 24 24 22 22 22 21 19 19 18 17 16 15 14 13 12 12 12 12 11 12 13 13 13 11 10 9 8 9 9 9 8 7 8 9 9 8 7 4 2 2 3 4 3 2 4 4 4 5 4 2 1 1 0 1 3 2 2 2 2 2 1 1 1 2 2
22 23 24 26 26 25 25 24 25 25 25 27 28 28 27 26 26 26 24 24 24 24 23 22 22 22 20 19 18 17 16 15 14 13 13 12 11 11 11 12 13 12 12 10 8 8 8 9 8 8 7 8 9 8 7 5 3 3 1 1 2 3 3 3 3 3 3 4 4 1 0 1 1 2 2 1 2 3 3 3 2 2 2 2 1
24 25 25 26 27 27 26 26 26 25 25 27 28 28 27 27 26 26 25 25 24 24 24 23 21 21 21 19 18 17 16 15 15 14 14 13 12 11 11 11 11 10 9 8 7 7 8 8 8 8 8 9 9 6 4 2 2 2 1 2 1 1 2 3 3 3 2 3 4 3 1 2 2 3 2 1 2 2 3 3 3 3 3 2 1
26 26 27 27 28 29 28 27 27 27 27 28 30 30 29 28 26 26 25 24 24 24 24 24 22 20 20 19 18 17 17 16 15 15 15 14 13 12 11 10 9 9 8 8 8 7 7 7 8 8 9 9 8 4 2 2 2 2 1 2 1 1 0 2 4 4 3 4 4 3 2 1 3 4 2 1 2 1 2 3 4 3 2 2 1
26 27 28 29 29 29 29 29 28 28 29 29 30 31 30 29 27 25 25 24 24 23 23 23 23 22 21 20 20 20 19 18 18 16 15 13 12 11 11 10 9 9 8 8 8 8 8 9 9 9 9 9 6 3 2 2 2 1 1 1 1 2 0 1 3 5 4 3 2 2 1 3 4 4 4 1 3 3 3 3 4 4 4 5 4
26 26 28 29 29 30 30 30 32 31 30 31 31 31 31 30 28 26 25 24 24 23 22 22 23 23 23 22 22 22 21 20 19 18 15 14 12 11 11 10 10 10 9 10 10 9 9 9 9 10 8 7 5 2 2 2 2 2 1 1 1 2 1 1 1 3 4 3 2 1 1 3 3 3 4 3 2 3 3 3 3 3 5 6 5
26 26 28 29 30 31 31 32 35 34 31 32 33 33 32 31 29 28 26 25 24 23 23 23 23 24 24 23 23 22 21 20 18 17 15 14 13 12 11 11 12 12 10 10 9 8 7 7 8 9 7 5 4 2 2 3 3 3 2 1 1 1 1 0 0 1 2 3 2 2 2 2 3 2 2 2 2 1 2 4 3 2 3 4 4
27 27 28 30 31 31 32 33 36 36 32 32 34 34 33 32 31 29 27 26 25 24 24 23 24 24 24 23 23 22 20 19 17 15 15 15 14 14 13 12 12 11 9 8 8 7 7 8 9 8 6 5 4 2 3 4 3 3 2 2 1 1 1 1 1 0 0 1 1 1 1 2 2 3 3 2 3 2 1 2 1 1 1 2 2
28 28 28 31 32 32 32 33 35 36 34 34 35 35 34 33 32 31 30 28 27 25 25 24 24 25 24 24 23 22 20 19 17 16 15 15 14 12 12 11 10 9 7 8 8 8 9 10 9 7 6 6 5 4 5 5 4 3 3 2 2 2 2 2 2 1 1 1 1 1 0 1 1 1 2 3 3 3 3 3 2 1 2 1 1
29 30 29 30 31 32 32 32 34 37 37 36 37 36 35 34 34 33 32 31 29 28 26 25 25 25 25 25 24 23 22 19 19 17 15 13 11 10 10 10 9 8 7 8 9 11 11 10 8 7 7 7 6 6 7 5 4 3 3 3 3 3 2 3 3 2 2 1 1 1 0 1 2 1 1 3 3 3 5 5 4 3 3 3 4
30 30 30 30 30 32 31 31 34 38 38 38 38 36 35 35 35 34 34 33 32 31 29 28 27 27 26 26 25 24 23 22 22 20 16 13 12 10 10 9 9 8 9 11 12 12 11 9 8 8 8 8 7 6 7 5 5 4 4 3 3 3 3 3 3 3 4 2 2 2 1 2 3 2 2 2 3 4 4 5 6 6 5 4 4
30 30 31 31 31 31 32 32 35 39 40 39 38 37 36 36 36 35 35 34 33 33 31 30 29 29 28 27 26 25 24 23 23 21 19 17 15 12 10 10 10 11 13 14 13 12 11 10 8 8 8 8 7 6 6 5 5 5 4 3 4 4 4 3 3 4 5 4 4 4 3 3 4 4 4 2 3 5 4 5 7 7 8 7 6
31 31 31 32 32 33 34 37 39 41 40 39 38 38 38 37 37 36 36 35 34 34 33 32 31 30 29 28 27 26 25 25 23 21 20 19 18 16 13 11 13 15 14 13 12 12 11 10 9 9 8 8 8 7 6 6 5 5 3 3 4 5 5 5 5 6 6 6 6 6 6 5 5 5 5 3 4 5 5 6 7 8 9 10 9
32 32 32 34 36 37 39 41 42 42 40 40 39 39 39 39 38 37 37 36 36 35 34 33 33 31 30 29 28 27 26 25 23 22 20 19 19 18 16 15 16 16 15 13 12 12 12 11 10 9 9 9 8 7 7 7 7 6 5 5 5 6 6 6 6 7 7 8 7 7 7 7 7 7 6 6 6 6 7 7 7 8 9 10 10
32 33 34 37 40 43 44 43 43 42 41 41 40 40 40 40 39 38 37 37 36 36 35 34 33 32 31 30 29 28 27 26 24 23 22 20 19 19 19 18 16 15 15 14 13 13 12 12 11 10 10 10 9 9 9 9 9 8 7 6 6 7 7 7 7 7 8 8 8 8 8 8 8 8 8 8 8 8 8 8 8 9 10 11 11
32 33 35 39 44 45 45 45 43 42 42 42 42 40 40 40 39 38 37 37 37 36 35 34 34 33 32 31 30 29 28 27 25 24 23 22 21 20 19 16 14 14 14 14 14 14 13 13 12 11 12 12 11 11 11 11 10 9 9 8 7 7 8 8 8 8 8 9 9 9 9 9 8 8 9 8 8 8 8 9 9 9 10 11 12
31 33 35 40 46 48 47 46 45 43 42 42 41 40 39 39 39 38 37 37 38 37 36 35 34 34 33 32 31 30 29 27 26 25 24 23 21 20 18 15 14 15 16 15 15 15 15 14 13 12 13 14 13 13 12 12 12 10 10 9 9 9 8 8 8 8 9 9 10 10 10 10 10 9 10 9 9 10 10 10 10 10 10 11 13
29 32 33 35 41 47 49 48 45 44 43 41 40 39 39 39 38 37 37 36 36 37 37 36 35 35 34 33 32 31 30 28 27 26 24 23 21 20 18 17 17 17 17 17 16 16 16 15 14 14 15 15 14 13 13 13 12 11 10 9 8 9 8 8 8 8 9 9 10 10 10 11 11 10 10 10 11 11 11 10 11 11 11 11 12
29 31 33 36 40 44 47 49 47 46 44 42 39 39 39 38 38 38 37 35 36 36 37 36 36 35 35 34 33 31 30 29 27 26 24 23 22 21 20 19 19 19 18 18 17 17 17 16 15 15 15 15 15 13 13 13 12 11 10 8 8 9 8 8 8 8 8 9 10 10 11 12 11 11 10 11 11 11 11 11 12 12 12 13 14
30 30 32 36 38 38 40 44 45 46 45 43 41 40 40 39 38 38 37 37 37 37 37 37 36 36 35 35 34 32 30 30 28 27 25 24 23 22 21 21 20 20 19 19 18 17 17 16 16 16 15 16 16 14 13 13 12 11 11 10 10 10 9 8 8 8 9 10 10 11 12 12 12 12 12 12 12 12 12 12 12 13 13 14 15
27 28 27 28 31 32 32 34 38 42 44 44 42 40 40 41 39 38 38 38 38 37 37 37 37 37 37 36 35 34 32 31 30 28 27 26 24 23 22 22 22 21 21 20 19 17 17 17 17 17 17 17 17 15 14 14 14 13 12 11 10 10 9 9 10 10 10 11 12 12 12 12 13 14 14 13 13 13 13 12 11 12 13 14 15
22 24 25 24 25 27 28 31 35 39 40 43 43 40 40 41 39 39 39 38 38 38 38 38 38 38 38 38 38 38 35 32 30 29 29 28 25 23 24 24 24 23 22 21 19 18 18 19 18 18 18 18 17 16 16 16 16 15 14 12 11 11 11 11 12 12 13 13 13 14 14 13 13 14 15 14 14 14 14 13 13 14 15 15 15
19 21 22 22 23 26 31 34 37 39 39 41 43 41 40 40 39 38 38 38 37 36 37 39 39 39 40 41 41 39 35 31 29 29 30 28 25 24 25 24 24 24 23 21 20 20 20 20 20 20 20 19 18 17 17 18 17 16 15 13 13 12 13 13 14 14 15 15 15 15 15 14 13 15 15 15 15 15 14 14 15 15 15 16 16
17 19 21 22 23 27 34 37 39 40 40 41 43 42 42 42 40 39 37 37 35 33 35 39 40 41 42 41 39 38 35 31 30 30 30 29 26 24 24 24 26 27 25 22 21 21 22 22 21 21 21 20 19 19 18 19 18 17 15 14 14 14 15 15 15 15 16 16 16 17 16 15 14 15 15 15 16 15 15 15 15 16 15 16 17
16 19 22 24 25 28 34 36 39 40 40 41 41 41 42 42 42 40 36 33 31 30 34 40 42 43 42 40 38 37 35 33 33 33 32 32 31 30 30 30 31 32 28 25 25 25 24 23 22 22 22 21 20 20 20 19 19 17 16 15 15 16 17 16 16 16 17 17 18 18 18 17 17 16 16 16 16 16 16 17 17 16 16 16 17
15 18 22 25 27 31 34 36 38 39 38 39 39 39 39 40 41 39 33 29 28 31 35 40 42 42 40 39 40 38 35 35 36 35 34 34 34 35 37 37 35 33 30 28 28 26 24 23 23 23 23 22 21 22 21 20 20 19 18 17 17 17 18 18 17 17 17 17 17 18 19 18 18 18 17 17 17 17 18 18 18 17 17 18 18
16 18 22 26 30 34 35 36 37 37 37 37 36 37 37 38 39 37 31 27 28 32 35 38 41 39 34 34 39 39 37 38 38 36 35 35 35 36 39 39 38 35 32 30 29 27 24 24 24 24 24 23 23 23 22 22 21 20 20 19 18 17 18 18 18 18 18 17 17 18 19 19 19 19 19 18 18 18 18 18 18 18 18 18 19
18 20 23 26 31 35 37 37 37 36 36 36 36 36 36 36 36 35 32 28 27 31 35 37 39 37 30 29 37 40 39 39 39 39 38 38 38 39 39 40 41 39 34 32 30 27 26 26 26 25 25 25 25 24 23 24 23 21 20 19 18 18 18 19 19 18 18 18 18 18 18 19 19 20 19 19 19 19 18 18 19 19 19 19 19
21 23 25 27 31 35 37 37 37 36 36 36 36 35 35 35 34 35 34 30 29 33 35 35 37 37 34 33 36 38 37 38 40 41 41 41 41 41 40 41 42 41 38 34 30 28 28 28 26 27 27 26 26 26 25 25 24 21 19 18 18 18 19 19 19 19 19 19 19 19 19 19 20 20 20 20 20 20 19 19 19 20 21 21 22
21 24 25 27 30 34 36 37 37 35 34 34 34 32 32 33 32 33 34 31 33 35 32 32 35 36 35 34 35 35 35 35 38 41 43 43 42 43 43 43 42 42 39 35 32 30 29 28 27 28 28 27 26 26 26 25 23 21 19 19 19 19 19 19 20 20 20 19 19 19 19 19 20 19 19 20 20 20 19 20 21 22 23 24 24
23 24 26 28 33 36 38 38 35 33 34 33 31 30 29 29 30 31 30 30 32 33 32 31 31 30 30 32 33 33 33 33 35 38 42 45 45 45 46 45 43 43 41 37 35 33 30 29 29 28 28 28 27 27 27 25 23 21 19 19 20 20 20 20 20 20 20 21 21 20 19 19 19 20 20 20 20 21 21 21 22 24 25 25 24
24 26 28 31 33 35 36 36 32 31 31 29 27 26 25 26 28 28 27 28 28 30 31 28 24 24 28 30 30 30 31 30 31 34 38 44 47 47 48 47 45 44 43 40 38 35 30 29 30 28 28 29 28 28 28 26 24 22 20 19 20 21 21 21 21 20 21 22 22 22 21 21 21 21 21 21 22 23 24 24 25 26 26 25 23
19 23 27 28 29 29 31 31 29 28 27 25 24 24 23 24 26 26 26 27 27 27 27 23 21 23 26 27 27 29 28 27 28 30 35 41 46 49 49 48 46 46 45 42 39 36 31 29 29 28 28 28 27 26 27 26 24 21 19 19 20 22 23 23 23 23 23 23 23 24 23 23 23 21 20 21 24 25 26 27 27 27 27 24 22
17 20 23 27 29 29 29 28 27 26 26 25 25 24 23 23 24 25 25 25 25 25 24 21 21 23 25 25 26 27 27 26 26 28 33 38 44 49 51 49 47 47 46 42 39 36 34 32 29 28 28 27 24 23 23 22 21 19 19 20 21 22 23 25 26 26 25 23 24 24 24 25 24 23 23 25 28 28 29 30 30 29 27 24 23
19 22 25 28 30 29 27 27 27 27 26 25 24 24 23 23 22 22 21 21 22 23 23 21 21 23 24 25 25 24 25 24 22 24 31 36 40 47 51 50 49 48 45 41 38 36 36 36 33 29 27 25 23 22 21 19 17 17 18 19 20 22 24 26 27 26 25 24 24 25 26 27 27 28 29 31 31 31 31 32 32 33 32 28 26
19 21 24 27 27 27 26 27 28 27 25 24 24 23 22 21 20 18 17 18 19 20 21 21 20 21 22 22 22 22 22 20 19 21 26 30 33 38 45 50 50 46 43 42 39 35 37 40 37 31 27 25 22 22 21 19 16 17 18 19 20 22 24 26 26 25 25 25 25 27 28 29 30 31 32 34 34 34 33 33 33 34 33 30 26
17 19 23 26 27 28 28 28 28 26 25 24 23 22 20 18 16 15 14 15 16 17 18 17 17 19 20 18 18 19 18 17 18 18 20 22 23 25 35 46 49 43 39 40 39 37 39 43 38 30 28 26 22 21 22 20 18 18 19 19 21 22 23 24 25 24 24 24 24 27 29 30 31 31 31 31 32 34 35 34 32 31 30 27 23
20 21 24 26 28 29 28 27 27 26 26 25 23 21 18 17 15 14 13 13 13 13 13 12 13 17 17 14 14 15 15 15 15 16 18 20 21 24 31 40 46 44 39 36 35 36 41 42 35 27 25 24 22 21 22 22 20 19 19 20 21 23 23 24 23 21 21 21 23 26 27 27 27 26 26 25 26 29 30 29 27 26 25 22 19
18 18 20 23 26 28 28 28 29 29 28 26 24 22 19 17 15 13 11 10 9 10 10 10 12 14 14 13 13 13 13 13 13 15 17 18 22 29 33 37 43 44 40 34 30 32 37 37 31 23 19 19 20 20 21 22 21 19 18 19 21 23 24 25 23 19 19 20 22 24 24 22 20 19 20 22 23 24 24 22 22 22 21 20 18
17 19 23 26 29 31 32 32 32 31 29 27 25 23 20 18 16 14 12 11 10 10 10 10 11 13 13 12 12 12 12 12 12 13 16 18 23 29 30 30 33 35 36 34 31 30 33 34 30 25 20 18 19 18 17 19 18 15 17 20 22 24 24 23 20 18 18 19 20 21 21 19 18 17 17 19 20 21 21 20 21 21 22 22 21
23 25 28 32 34 35 35 34 32 30 28 26 24 22 20 18 16 15 13 12 12 11 10 10 11 12 12 12 12 11 11 11 12 14 17 21 26 28 26 24 25 27 30 32 31 32 32 29 25 22 20 19 18 15 14 16 15 15 19 21 21 21 22 21 19 18 18 19 19 19 18 19 18 17 17 17 18 18 20 21 22 22 22 22 22
31 31 33 37 39 38 35 32 30 27 26 24 22 21 19 17 16 14 12 11 10 10 10 10 11 11 11 11 12 12 11 11 13 16 17 21 25 26 24 23 23 24 25 27 30 31 29 23 19 18 18 16 14 11 12 15 16 17 18 18 17 17 18 18 18 18 17 17 16 16 18 19 18 17 18 18 18 18 19 20 20 21 21 22 23
32 33 35 36 37 35 32 30 28 25 23 20 18 17 17 15 13 11 10 9 8 8 9 10 10 10 10 11 12 12 11 12 14 16 19 22 24 22 20 19 21 21 22 25 27 27 23 18 16 16 14 11 10 10 13 15 16 16 16 16 15 15 15 16 17 17 16 15 15 16 19 19 19 19 19 18 18 18 18 18 19 20 21 23 24
33 34 34 33 33 32 30 28 25 22 20 17 15 14 13 12 11 10 10 10 9 9 10 9 9 9 10 11 12 12 11 12 13 16 21 24 23 19 17 19 21 21 23 25 25 23 19 15 12 10 9 8 11 14 15 13 12 12 15 17 16 15 15 15 16 16 17 17 18 19 20 21 21 21 19 18 17 18 17 17 18 19 21 22 22
33 33 32 31 30 29 28 27 25 21 18 16 13 11 9 9 11 11 11 10 10 9 8 7 7 7 8 10 10 11 11 11 11 13 18 22 22 19 19 20 22 24 25 24 22 19 15 10 8 8 9 11 15 15 12 12 14 17 18 17 15 13 13 14 15 16 17 18 19 20 21 22 21 20 18 17 16 16 17 17 17 18 18 17 16
31 30 29 28 27 26 24 23 22 19 17 14 12 10 10 11 12 11 11 10 8 7 7 6 6 6 7 8 9 10 10 10 10 12 15 18 20 20 21 21 22 25 26 23 19 16 12 10 11 11 13 14 14 11 9 11 15 17 17 15 14 13 13 14 15 15 17 18 18 19 19 19 19 18 17 16 17 17 16 15 14 13 12 10 11
26 25 23 21 21 20 18 16 16 15 14 12 12 11 11 11 10 8 7 6 6 6 6 6 6 6 7 8 10 11 10 9 10 13 15 17 18 19 20 20 22 26 27 22 17 14 12 13 14 15 15 12 9 7 8 10 11 11 11 12 13 13 12 12 12 13 14 14 15 16 17 16 16 16 14 13 13 13 12 9 8 8 8 8 10
22 20 18 18 17 16 15 14 13 13 11 11 10 9 8 7 6 5 4 5 5 5 5 5 5 6 7 9 11 11 10 9 11 13 14 16 18 18 17 18 22 27 27 22 18 16 15 14 14 15 14 10 7 9 12 13 13 13 13 12 11 11 11 12 13 13 13 11 11 13 14 13 13 12 11 10 8 7 6 6 7 8 9 9 11
18 16 16 15 14 13 13 12 11 10 9 8 8 7 6 4 4 4 4 5 6 5 6 6 6 6 8 9 10 10 10 11 12 14 14 16 18 19 18 20 23 25 24 21 19 18 16 15 14 13 12 10 10 13 15 15 14 14 13 12 12 12 14 16 16 16 15 13 12 12 13 13 12 11 10 9 8 6 6 7 9 10 10 10 11
16 14 13 12 12 10 9 9 8 7 6 6 6 6 5 5 4 4 4 5 6 6 7 8 8 9 11 10 9 10 11 11 10 12 12 13 13 13 14 16 18 17 17 17 16 15 15 15 14 13 12 12 13 14 14 14 14 13 13 13 14 15 16 16 15 15 15 14 13 13 13 12 11 10 9 8 7 7 8 9 9 10 11 11 12
Wind_Direction
203 202 202 202 203 203 203 203 205 208 211 212 214 216 215 216 219 220 219 218 219 221 219 220 220 220 222 225 226 228 231 234 239 242 244 248 250 253 256 257 263 269 275 282 287 287 287 293 301 304 302 300 299 291 284 282 283 287 290 299 303 298 306 315 308 320 343 340 340 344 330 332 318 317 359 18 58 116 158 151 154 174 214 246 266
202 200 201 202 202 202 203 203 204 207 212 215 215 217 217 218 220 220 220 220 221 222 221 221 223 222 223 226 228 230 233 236 240 244 246 247 252 255 255 258 264 270 277 283 285 286 291 298 303 307 306 299 298 297 294 292 286 274 259 287 297 287 296 309 313 339 352 331 336 351 306 332 29 51 27 29 54 82 97 88 82 55 312 265 273
201 201 200 202 202 202 203 204 206 208 211 216 216 217 217 217 219 220 219 220 221 223 223 223 225 225 226 229 232 234 236 238 239 242 245 245 249 253 253 259 264 271 280 281 283 288 294 300 305 307 300 293 298 299 297 298 279 256 245 257 284 308 324 324 317 331 334 332 341 1 345 248 168 90 6 16 78 87 89 70 62 39 325 298 317
201 202 202 203 203 203 204 205 207 207 209 214 214 214 214 214 216 216 216 217 219 222 223 222 225 227 229 231 235 236 236 239 239 240 244 243 245 251 254 259 262 268 275 276 281 289 291 297 300 296 289 291 298 296 285 286 276 272 286 279 280 342 343 332 317 321 356 11 4 348 303 232 133 58 354 35 72 72 76 42 44 43 343 323 338
202 203 203 203 203 203 204 205 206 206 207 210 212 212 211 212 213 215 215 216 218 221 223 222 223 225 226 227 231 233 234 237 237 237 240 241 245 250 252 255 258 262 266 270 275 279 283 288 287 283 284 291 296 290 258 245 252 268 285 301 306 264 340 346 317 332 25 35 18 1 314 307 29 11 334 106 72 54 81 41 42 53 24 39 47
206 205 205 204 204 204 204 205 205 206 208 210 212 212 212 212 213 213 215 215 217 219 221 221 220 221 221 222 225 228 229 232 233 232 235 238 239 242 246 250 253 256 261 264 267 272 276 275 275 278 283 290 294 282 256 234 226 247 261 291 297 276 316 51 322 335 13 28 21 34 4 343 355 345 334 32 90 93 86 51 50 53 46 58 63
209 208 207 206 205 204 204 206 206 206 208 210 213 214 215 215 215 214 215 216 217 218 218 219 219 218 219 222 225 229 231 232 234 233 232 235 235 234 242 248 249 253 255 254 257 263 263 260 268 279 279 282 291 282 245 223 201 211 226 253 270 291 334 80 337 334 356 3 5 41 20 336 326 342 346 347 74 102 103 85 70 53 49 52 57
209 207 207 206 205 205 205 207 209 208 209 211 214 216 217 217 217 217 217 218 219 219 218 217 218 217 218 222 226 229 233 235 238 239 235 234 235 235 239 244 248 251 247 243 244 241 240 246 268 281 273 267 280 262 227 223 203 199 211 237 252 297 319 238 253 320 350 348 351 19 9 334 321 335 344 339 353 64 137 121 95 73 69 63 61
209 208 207 206 206 206 207 209 211 210 209 213 216 217 218 218 218 219 219 219 220 220 219 218 218 218 218 221 224 226 229 232 235 239 236 230 232 236 238 241 247 250 242 234 232 226 239 261 274 278 269 261 258 221 227 235 207 195 207 226 236 248 272 275 278 288 320 295 302 46 9 341 339 333 337 344 337 317 193 130 97 128 130 90 76
210 210 208 207 207 207 209 210 213 213 212 215 219 219 220 220 219 220 220 220 221 221 220 220 220 220 219 221 224 225 227 230 231 234 233 229 232 236 239 242 247 248 238 228 232 242 258 270 273 274 266 256 246 214 224 237 218 202 205 219 234 242 260 273 279 273 232 253 264 130 78 315 300 310 327 324 322 319 304 292 274 238 243 230 174
209 211 210 209 209 209 210 211 214 216 215 217 220 221 222 222 221 221 220 221 222 221 220 220 221 221 222 224 226 226 227 228 228 229 228 229 231 233 238 243 242 239 230 232 248 258 264 268 264 263 258 251 246 225 221 226 222 222 212 220 248 253 267 285 296 300 296 290 282 265 178 254 264 253 282 297 305 306 297 294 291 287 281 246 230
206 208 209 209 209 209 209 210 215 219 219 219 221 222 223 224 223 222 221 222 223 222 222 221 222 223 224 226 227 227 228 229 232 233 232 233 234 233 236 237 232 232 237 248 260 262 265 268 258 253 252 247 241 227 222 216 212 224 222 227 257 265 278 293 304 308 310 309 282 282 273 250 257 246 234 241 261 275 280 290 297 298 291 257 243
204 206 207 207 207 207 207 209 215 222 222 221 221 222 224 224 224 223 222 223 224 224 224 224 224 225 226 227 228 229 230 231 236 239 239 241 243 239 235 236 241 250 254 258 262 262 264 267 258 253 254 247 235 222 224 221 216 221 223 234 256 268 281 285 285 294 299 297 288 289 293 283 272 271 272 251 248 271 279 286 295 298 294 285 278
203 204 206 206 205 206 209 213 219 225 225 223 222 222 224 224 224 223 223 223 224 225 225 226 226 226 228 229 230 232 232 232 236 238 240 244 247 245 240 241 252 258 259 258 257 256 259 263 261 259 256 251 237 223 224 229 232 232 227 239 254 264 271 271 274 284 289 290 289 290 293 291 284 282 290 285 263 274 284 287 293 296 296 296 295
202 203 205 208 211 213 216 220 224 226 226 225 224 224 225 225 224 223 222 222 224 225 226 227 227 227 229 230 232 233 234 235 236 237 239 243 246 248 247 248 255 258 258 259 258 256 258 261 264 264 259 253 241 228 231 237 241 244 242 245 250 255 260 265 272 276 281 283 282 282 284 282 283 283 284 287 285 287 293 297 298 295 296 297 297
202 203 205 210 217 221 222 223 225 226 226 226 226 225 225 226 226 224 223 222 223 225 226 227 228 228 229 230 232 234 236 236 236 237 239 241 243 247 251 253 255 255 258 262 262 261 262 262 264 265 260 254 246 239 240 241 242 244 246 248 248 252 257 261 267 271 272 275 274 275 277 275 280 286 285 285 287 291 297 301 299 292 292 293 294
201 202 205 211 218 223 224 225 225 225 225 226 226 226 226 226 226 225 223 223 224 225 226 227 229 229 230 231 232 234 236 237 237 239 240 241 243 246 249 250 249 250 255 260 262 263 263 262 263 262 259 257 254 248 243 240 243 246 248 248 245 246 253 256 262 266 267 269 271 272 275 274 276 281 283 283 284 287 294 297 296 289 286 287 289
201 203 206 212 218 222 223 224 224 224 225 225 224 225 226 226 227 227 225 224 224 225 226 227 229 230 231 232 233 234 237 238 238 240 240 240 243 245 246 247 248 250 253 255 259 262 262 262 261 258 257 259 256 249 243 240 242 246 247 249 245 242 248 254 257 260 261 265 268 269 271 273 275 277 278 279 281 284 290 293 292 287 283 282 284
201 204 206 209 215 221 223 223 223 224 225 225 225 225 226 227 227 228 227 226 225 226 227 228 229 231 232 233 235 236 237 239 238 239 240 241 243 245 245 247 250 252 252 253 256 259 262 263 262 259 258 259 255 247 243 243 244 244 242 243 246 247 249 253 256 260 262 263 266 267 268 270 273 276 275 276 279 282 286 287 286 284 282 281 282
202 204 207 212 217 220 222 223 223 224 225 224 225 227 227 227 227 227 228 228 227 228 229 230 230 231 233 234 236 237 238 240 239 239 239 240 242 243 243 244 247 249 251 253 254 257 262 264 263 261 257 257 253 244 241 246 245 240 232 226 234 245 249 250 255 260 264 267 268 268 270 269 270 272 272 273 275 277 279 279 281 282 281 283 285
204 205 208 213 217 217 216 219 221 222 225 224 224 227 228 228 228 227 227 228 228 229 230 231 231 232 234 235 236 238 239 239 239 237 237 236 238 239 240 241 243 245 247 250 252 255 260 263 262 259 255 252 247 240 241 246 240 232 229 227 232 242 249 254 258 261 264 269 270 269 270 270 269 270 271 271 271 272 275 276 279 282 282 284 287
206 208 210 211 213 212 208 209 213 217 221 224 223 223 226 229 229 228 228 228 229 229 230 231 232 233 234 234 236 235 236 237 237 235 235 234 235 237 239 239 240 242 242 245 250 252 254 257 257 255 253 248 243 239 241 242 234 231 233 235 239 246 254 259 263 266 269 272 273 271 272 272 271 270 268 269 271 271 273 275 276 279 282 282 282
208 209 213 211 209 208 203 203 209 212 215 220 221 219 222 227 228 229 229 228 229 230 231 232 232 233 234 233 234 233 233 234 234 233 234 233 233 235 237 237 238 240 240 242 246 247 249 252 252 251 249 246 241 239 239 237 233 235 236 237 242 248 256 261 264 268 271 273 273 272 273 275 273 270 268 268 271 272 272 275 277 279 282 283 282
209 207 212 211 204 204 206 207 211 212 212 217 221 219 220 223 224 226 229 231 229 225 228 233 233 233 233 233 234 234 233 233 233 233 233 233 232 235 239 239 239 241 239 240 243 243 245 247 246 246 245 242 239 237 236 236 235 238 240 242 247 253 259 263 266 270 273 275 275 274 273 274 272 271 271 270 270 272 272 274 279 283 284 284 285
207 207 208 207 202 204 210 211 213 214 213 217 220 220 221 223 223 223 226 229 226 216 221 232 234 233 234 233 235 236 235 235 234 233 232 230 228 232 239 241 242 240 236 237 243 244 244 244 243 243 243 239 238 236 236 236 236 239 243 247 254 259 264 267 269 272 275 276 275 273 272 271 270 270 270 270 270 271 272 271 275 279 280 280 283
211 208 205 203 201 206 212 214 214 215 216 218 220 221 222 224 225 224 221 220 215 206 215 231 235 235 235 233 233 234 233 233 233 232 230 226 223 225 229 233 236 237 231 230 237 241 242 242 241 241 241 238 236 236 235 236 237 240 246 251 255 260 266 269 270 272 274 275 275 274 272 268 267 267 266 266 268 270 271 271 273 276 278 279 281
217 208 204 203 204 210 215 217 217 217 218 220 222 222 222 224 226 223 215 208 205 204 214 228 235 238 238 235 232 231 230 231 231 231 230 228 226 226 226 228 230 233 230 227 230 235 238 240 240 240 240 238 236 235 235 236 238 240 246 252 256 260 265 268 270 271 271 271 272 274 273 269 266 266 263 262 265 267 269 271 273 276 279 281 283
215 210 209 207 209 213 216 217 217 218 219 220 221 221 222 223 223 219 210 203 203 207 215 225 232 234 235 234 233 231 229 229 230 230 231 232 231 229 229 229 230 231 231 226 225 228 231 235 238 238 239 238 236 236 236 237 238 240 245 252 257 260 264 267 270 273 273 272 270 269 268 265 263 263 262 260 260 262 266 269 273 277 281 284 285
214 219 218 214 214 215 216 216 216 217 218 219 220 220 221 222 222 220 213 204 202 210 218 224 228 230 230 234 239 238 232 229 229 230 231 232 233 232 231 230 229 229 229 227 223 223 226 231 235 237 237 237 237 237 237 238 238 240 245 253 259 263 266 268 268 270 272 274 273 269 265 262 261 263 263 261 259 259 262 267 273 279 283 285 285
221 229 227 221 219 218 216 215 214 215 216 217 218 220 221 222 223 223 219 209 208 217 223 224 228 233 235 239 244 244 238 231 229 230 230 231 232 233 231 229 228 227 227 227 223 221 226 230 232 235 236 236 238 239 239 239 239 240 245 253 260 265 269 270 268 268 272 273 273 272 268 266 267 268 265 261 261 261 264 270 275 280 283 284 284
224 231 229 223 219 218 217 215 214 213 212 213 215 217 219 221 222 224 223 216 216 223 224 224 231 234 236 241 247 249 247 240 233 230 230 230 231 232 231 229 228 226 226 226 222 220 226 231 230 233 235 235 237 239 241 242 240 240 244 252 259 265 269 272 271 271 274 275 274 271 269 268 269 269 265 263 263 263 265 271 276 280 282 283 282
226 230 228 223 218 216 216 214 211 208 208 209 211 212 215 217 219 222 222 217 219 226 228 231 233 231 235 245 251 252 252 248 239 233 231 230 230 232 231 230 229 228 225 224 220 217 224 231 231 232 233 233 236 239 242 245 245 243 245 250 258 262 265 269 271 271 272 274 274 272 270 269 267 267 268 265 263 265 267 270 275 279 281 282 282
230 230 229 223 217 213 213 211 207 205 205 205 205 207 209 212 216 218 218 216 220 227 232 232 225 223 237 249 251 250 252 250 244 238 233 231 230 232 232 231 230 228 226 224 219 214 220 229 231 232 231 233 237 240 243 248 248 247 248 252 259 263 265 269 272 272 272 273 273 272 272 273 269 267 270 269 265 266 269 271 274 276 278 282 283
227 227 225 218 208 205 208 209 205 202 203 201 201 205 205 207 213 215 216 218 222 227 230 225 216 225 241 249 247 246 249 251 246 239 234 233 232 233 233 232 229 227 225 223 217 213 219 229 231 231 231 234 240 244 248 253 252 251 253 257 262 266 270 273 275 275 276 276 274 271 271 273 272 268 267 269 268 268 271 274 275 275 277 281 282
216 217 217 212 206 205 205 203 200 198 199 198 197 199 201 204 208 211 215 218 223 228 227 220 222 235 242 243 243 244 246 249 246 238 234 233 232 233 233 231 227 225 225 223 218 216 224 231 233 233 234 237 243 249 256 261 259 255 258 261 264 268 272 275 276 278 279 277 274 273 271 271 271 269 268 271 272 273 273 275 276 275 276 276 276
213 217 218 215 210 206 200 194 192 192 191 191 191 192 196 199 201 206 211 215 221 227 227 225 232 238 238 239 241 242 243 243 238 233 234 233 232 234 236 232 226 225 225 224 221 222 228 232 235 238 238 240 248 256 266 271 266 261 262 262 266 271 273 273 275 276 277 275 274 273 271 270 271 272 273 274 274 275 274 275 275 274 273 272 274
222 227 225 217 207 201 195 186 183 183 183 183 186 188 190 192 195 199 205 211 219 224 227 230 234 234 235 239 241 240 239 235 227 226 231 231 230 235 237 233 228 225 225 224 224 225 228 231 235 241 244 247 255 265 272 273 266 263 263 262 267 273 275 274 273 272 274 275 274 273 274 276 277 275 274 273 273 273 272 272 273 274 275 277 280
212 213 211 208 198 191 189 183 177 177 178 177 177 178 178 179 184 190 197 206 214 220 224 228 229 231 234 236 237 238 235 229 224 222 226 226 224 230 235 233 228 224 223 226 226 225 228 231 235 242 249 255 262 272 277 272 264 262 262 260 265 272 275 275 274 273 275 276 275 275 276 278 278 278 276 274 272 270 269 269 271 273 275 279 280
195 197 200 200 190 182 181 178 172 171 170 167 163 162 163 165 169 177 187 196 206 213 218 220 222 226 226 223 226 229 226 223 222 221 226 226 223 230 236 234 230 225 223 226 226 224 227 232 236 242 252 261 267 273 277 274 267 263 260 260 264 268 270 274 276 277 277 277 278 281 282 280 278 276 274 271 269 268 268 268 269 271 272 273 273
186 190 192 189 180 172 170 167 164 160 156 153 151 152 154 156 159 165 172 180 188 196 202 208 213 215 212 210 217 220 218 221 223 224 227 225 226 235 238 236 234 229 225 225 224 222 226 230 232 240 256 271 276 275 274 272 267 260 258 261 264 265 267 272 277 279 278 278 281 284 285 284 281 275 270 267 267 267 266 265 265 268 268 267 265
163 169 171 167 162 159 157 154 152 149 146 147 148 149 150 150 151 153 157 162 170 179 189 198 203 203 203 208 214 217 217 220 220 221 224 226 231 237 236 233 232 230 226 226 222 221 228 230 232 241 257 272 278 273 265 262 259 255 258 262 263 265 269 274 278 279 278 278 280 281 281 280 279 276 272 269 267 265 264 264 265 266 266 265 266
154 157 156 151 149 149 147 145 144 143 144 146 146 146 146 146 146 149 155 162 167 173 182 189 192 197 202 207 214 218 220 220 217 216 224 233 237 238 236 234 234 232 231 229 224 224 230 232 234 245 257 265 268 263 254 255 259 262 266 267 267 268 273 276 275 274 275 276 277 277 275 274 276 276 274 271 268 264 263 265 267 266 267 267 269
144 145 146 147 147 145 142 140 140 140 141 143 145 146 146 147 148 151 157 163 166 171 182 191 194 198 202 206 213 219 222 224 222 219 227 237 238 237 239 237 233 230 227 225 223 225 228 230 234 245 255 260 260 258 257 261 265 268 270 273 276 277 278 277 275 274 276 279 279 275 272 273 275 275 273 271 270 268 267 268 268 268 267 268 269
137 141 145 144 141 137 133 131 131 132 134 137 143 147 146 146 150 157 166 174 183 194 202 204 204 203 203 205 211 216 219 223 225 228 234 234 229 231 236 226 216 214 214 213 216 221 225 227 232 239 248 250 249 257 264 263 261 266 275 282 285 283 282 281 279 278 277 274 271 269 269 272 275 275 275 274 272 271 272 273 273 273 272 272 273
135 138 138 136 133 131 130 128 129 132 135 138 142 145 144 147 156 169 181 189 198 209 210 206 206 209 207 205 209 214 215 219 227 234 235 229 223 226 228 214 205 206 208 210 213 215 217 220 228 237 243 239 240 251 262 267 270 279 286 287 285 285 285 284 281 279 276 272 271 270 271 273 276 276 276 275 271 271 273 276 277 276 274 273 275
125 127 129 131 130 130 131 131 132 133 136 140 144 146 151 164 173 181 187 189 193 200 200 193 195 204 206 203 207 213 213 217 225 229 229 227 225 220 214 206 203 205 206 207 210 210 210 222 246 251 240 232 237 247 263 279 284 284 283 279 277 279 281 282 281 280 278 277 277 275 274 275 277 277 274 271 269 270 274 276 275 271 269 271 276
116 119 123 126 127 126 127 129 130 133 138 146 154 162 172 181 185 187 189 189 190 193 192 188 188 199 205 202 205 209 208 210 217 217 218 222 220 212 206 203 202 202 201 201 203 202 210 243 258 244 231 233 241 255 278 286 283 284 284 282 281 281 279 282 284 284 284 282 278 275 274 274 275 275 271 267 267 270 273 274 271 267 266 265 269
114 116 118 119 122 125 126 130 133 138 145 155 162 168 174 178 182 186 189 196 202 202 207 207 197 198 202 201 206 209 199 195 210 215 215 216 214 211 210 207 201 197 197 202 206 209 228 252 247 229 225 234 241 250 261 260 256 259 266 276 286 289 287 286 285 282 284 284 281 279 277 273 272 271 264 263 269 270 268 268 266 265 269 270 267
114 116 117 118 121 125 129 133 136 138 144 152 155 159 163 167 177 187 197 220 229 219 211 200 185 190 196 194 201 205 194 189 206 215 215 212 207 204 206 206 202 200 202 211 226 236 243 243 228 218 223 228 225 237 252 254 252 252 252 259 274 283 282 282 281 276 271 267 270 277 277 270 266 260 250 251 260 259 260 268 264 261 270 276 276
111 114 115 117 120 125 130 132 133 136 142 146 147 149 152 159 184 201 213 233 234 212 184 168 170 192 201 195 194 195 187 189 204 213 215 213 207 202 202 203 203 205 211 223 236 239 233 222 216 221 229 227 226 241 252 258 261 262 262 266 275 281 282 283 284 280 270 260 258 263 263 260 257 251 245 246 247 247 258 268 270 276 284 280 276
109 111 112 114 117 122 129 133 136 140 147 150 151 154 158 170 192 207 216 226 225 196 165 160 178 197 197 190 189 192 188 187 197 206 213 216 210 202 197 199 203 210 217 222 224 221 218 219 225 231 233 231 235 244 251 257 261 265 272 278 282 284 285 283 280 276 269 263 261 260 259 258 257 256 256 256 254 260 266 266 270 280 286 284 286